Year,Month,Day,Hour,Minute,Value (Times are PST for temperature in C)
2009,12,08,00,00,-6.30
2009,12,08,00,01,-6.30
2009,12,08,00,02,-6.30
2009,12,08,00,03,-6.30
2009,12,08,00,04,-6.30
2009,12,08,00,05,-6.30
2009,12,08,00,06,-6.30
2009,12,08,00,07,-6.20
2009,12,08,00,08,-6.20
2009,12,08,00,09,-6.20
2009,12,08,00,10,-6.20
2009,12,08,00,11,-6.20
2009,12,08,00,12,-6.20
2009,12,08,00,13,-6.20
2009,12,08,00,14,-6.20
2009,12,08,00,15,-6.20
2009,12,08,00,16,-6.20
2009,12,08,00,17,-6.10
2009,12,08,00,18,-6.10
2009,12,08,00,19,-6.10
2009,12,08,00,20,-6.10
2009,12,08,00,21,-6.10
2009,12,08,00,22,-6.10
2009,12,08,00,23,-6.10
2009,12,08,00,24,-6.10
2009,12,08,00,25,-6.20
2009,12,08,00,26,-6.20
2009,12,08,00,27,-6.20
2009,12,08,00,28,-6.20
2009,12,08,00,29,-6.20
2009,12,08,00,30,-6.30
2009,12,08,00,31,-6.30
2009,12,08,00,32,-6.30
2009,12,08,00,33,-6.30
2009,12,08,00,34,-6.30
2009,12,08,00,35,-6.30
2009,12,08,00,36,-6.30
2009,12,08,00,37,-6.30
2009,12,08,00,38,-6.30
2009,12,08,00,39,-6.40
2009,12,08,00,40,-6.40
2009,12,08,00,41,-6.40
2009,12,08,00,42,-6.40
2009,12,08,00,43,-6.50
2009,12,08,00,44,-6.50
2009,12,08,00,45,-6.50
2009,12,08,00,46,-6.50
2009,12,08,00,47,-6.60
2009,12,08,00,48,-6.60
2009,12,08,00,49,-6.60
2009,12,08,00,50,-6.60
2009,12,08,00,51,-6.50
2009,12,08,00,52,-6.50
2009,12,08,00,53,-6.50
2009,12,08,00,54,-6.50
2009,12,08,00,55,-6.50
2009,12,08,00,56,-6.50
2009,12,08,00,57,-6.60
2009,12,08,00,58,-6.60
2009,12,08,00,59,-6.60
2009,12,08,01,00,-6.60
2009,12,08,01,01,-6.60
2009,12,08,01,02,-6.60
2009,12,08,01,03,-6.60
2009,12,08,01,04,-6.60
2009,12,08,01,05,-6.60
2009,12,08,01,06,-6.60
2009,12,08,01,07,-6.60
2009,12,08,01,08,-6.60
2009,12,08,01,09,-6.60
2009,12,08,01,10,-6.60
2009,12,08,01,11,-6.60
2009,12,08,01,12,-6.60
2009,12,08,01,13,-6.60
2009,12,08,01,14,-6.60
2009,12,08,01,15,-6.60
2009,12,08,01,16,-6.60
2009,12,08,01,17,-6.60
2009,12,08,01,18,-6.60
2009,12,08,01,19,-6.60
2009,12,08,01,20,-6.60
2009,12,08,01,21,-6.60
2009,12,08,01,22,-6.60
2009,12,08,01,23,-6.70
2009,12,08,01,24,-6.70
2009,12,08,01,25,-6.70
2009,12,08,01,26,-6.80
2009,12,08,01,27,-6.80
2009,12,08,01,28,-6.80
2009,12,08,01,29,-6.80
2009,12,08,01,30,-6.90
2009,12,08,01,31,-6.90
2009,12,08,01,32,-6.90
2009,12,08,01,33,-6.90
2009,12,08,01,34,-6.90
2009,12,08,01,35,-6.80
2009,12,08,01,36,-6.80
2009,12,08,01,37,-6.80
2009,12,08,01,38,-6.80
2009,12,08,01,39,-6.80
2009,12,08,01,40,-6.80
2009,12,08,01,41,-6.90
2009,12,08,01,42,-6.90
2009,12,08,01,43,-7.00
2009,12,08,01,44,-7.00
2009,12,08,01,45,-7.10
2009,12,08,01,46,-7.10
2009,12,08,01,47,-7.10
2009,12,08,01,48,-7.10
2009,12,08,01,49,-7.10
2009,12,08,01,50,-7.00
2009,12,08,01,51,-7.00
2009,12,08,01,52,-6.90
2009,12,08,01,53,-6.80
2009,12,08,01,54,-6.80
2009,12,08,01,55,-6.80
2009,12,08,01,56,-6.80
2009,12,08,01,57,-6.80
2009,12,08,01,58,-6.80
2009,12,08,01,59,-6.70
2009,12,08,02,00,-6.70
2009,12,08,02,01,-6.70
2009,12,08,02,02,-6.70
2009,12,08,02,03,-6.70
2009,12,08,02,04,-6.70
2009,12,08,02,05,-6.70
2009,12,08,02,06,-6.70
2009,12,08,02,07,-6.80
2009,12,08,02,08,-6.80
2009,12,08,02,09,-6.80
2009,12,08,02,10,-6.80
2009,12,08,02,11,-6.80
2009,12,08,02,12,-6.80
2009,12,08,02,13,-6.80
2009,12,08,02,14,-6.80
2009,12,08,02,15,-6.90
2009,12,08,02,16,-7.00
2009,12,08,02,17,-7.10
2009,12,08,02,18,-7.10
2009,12,08,02,19,-7.10
2009,12,08,02,20,-7.10
2009,12,08,02,21,-7.10
2009,12,08,02,22,-7.10
2009,12,08,02,23,-7.10
2009,12,08,02,24,-7.10
2009,12,08,02,25,-7.10
2009,12,08,02,26,-7.10
2009,12,08,02,27,-7.10
2009,12,08,02,28,-7.10
2009,12,08,02,29,-7.10
2009,12,08,02,30,-7.10
2009,12,08,02,31,-7.10
2009,12,08,02,32,-7.10
2009,12,08,02,33,-7.10
2009,12,08,02,34,-7.10
2009,12,08,02,35,-7.20
2009,12,08,02,36,-7.20
2009,12,08,02,37,-7.30
2009,12,08,02,38,-7.30
2009,12,08,02,39,-7.40
2009,12,08,02,40,-7.50
2009,12,08,02,41,-7.50
2009,12,08,02,42,-7.60
2009,12,08,02,43,-7.70
2009,12,08,02,44,-7.70
2009,12,08,02,45,-7.80
2009,12,08,02,46,-7.80
2009,12,08,02,47,-7.80
2009,12,08,02,48,-7.80
2009,12,08,02,49,-7.90
2009,12,08,02,50,-7.90
2009,12,08,02,51,-8.00
2009,12,08,02,52,-8.00
2009,12,08,02,53,-8.00
2009,12,08,02,54,-8.10
2009,12,08,02,55,-8.10
2009,12,08,02,56,-8.20
2009,12,08,02,57,-8.20
2009,12,08,02,58,-8.20
2009,12,08,02,59,-8.20
2009,12,08,03,00,-8.20
2009,12,08,03,01,-8.20
2009,12,08,03,02,-8.20
2009,12,08,03,03,-8.20
2009,12,08,03,04,-8.20
2009,12,08,03,05,-8.20
2009,12,08,03,06,-8.20
2009,12,08,03,07,-8.20
2009,12,08,03,08,-8.20
2009,12,08,03,09,-8.20
2009,12,08,03,10,-8.10
2009,12,08,03,11,-8.10
2009,12,08,03,12,-8.20
2009,12,08,03,13,-8.20
2009,12,08,03,14,-8.20
2009,12,08,03,15,-8.20
2009,12,08,03,16,-8.20
2009,12,08,03,17,-8.20
2009,12,08,03,18,-8.20
2009,12,08,03,19,-8.20
2009,12,08,03,20,-8.20
2009,12,08,03,21,-8.30
2009,12,08,03,22,-8.30
2009,12,08,03,23,-8.30
2009,12,08,03,24,-8.30
2009,12,08,03,25,-8.30
2009,12,08,03,26,-8.30
2009,12,08,03,27,-8.30
2009,12,08,03,28,-8.20
2009,12,08,03,29,-8.20
2009,12,08,03,30,-8.10
2009,12,08,03,31,-8.10
2009,12,08,03,32,-8.10
2009,12,08,03,33,-8.00
2009,12,08,03,34,-8.00
2009,12,08,03,35,-8.00
2009,12,08,03,36,-8.00
2009,12,08,03,37,-7.90
2009,12,08,03,38,-7.90
2009,12,08,03,39,-8.00
2009,12,08,03,40,-8.00
2009,12,08,03,41,-8.10
2009,12,08,03,42,-8.10
2009,12,08,03,43,-8.20
2009,12,08,03,44,-8.20
2009,12,08,03,45,-8.30
2009,12,08,03,46,-8.30
2009,12,08,03,47,-8.30
2009,12,08,03,48,-8.30
2009,12,08,03,49,-8.20
2009,12,08,03,50,-8.20
2009,12,08,03,51,-8.20
2009,12,08,03,52,-8.20
2009,12,08,03,53,-8.10
2009,12,08,03,54,-8.10
2009,12,08,03,55,-8.10
2009,12,08,03,56,-8.10
2009,12,08,03,57,-8.10
2009,12,08,03,58,-8.10
2009,12,08,03,59,-8.10
2009,12,08,04,00,-8.20
2009,12,08,04,01,-8.20
2009,12,08,04,02,-8.30
2009,12,08,04,03,-8.30
2009,12,08,04,04,-8.30
2009,12,08,04,05,-8.30
2009,12,08,04,06,-8.40
2009,12,08,04,07,-8.40
2009,12,08,04,08,-8.40
2009,12,08,04,09,-8.50
2009,12,08,04,10,-8.50
2009,12,08,04,11,-8.50
2009,12,08,04,12,-8.50
2009,12,08,04,13,-8.60
2009,12,08,04,14,-8.50
2009,12,08,04,15,-8.40
2009,12,08,04,16,-8.30
2009,12,08,04,17,-8.20
2009,12,08,04,18,-8.10
2009,12,08,04,19,-8.00
2009,12,08,04,20,-7.90
2009,12,08,04,21,-7.90
2009,12,08,04,22,-7.90
2009,12,08,04,23,-7.90
2009,12,08,04,24,-7.90
2009,12,08,04,25,-7.90
2009,12,08,04,26,-7.90
2009,12,08,04,27,-8.00
2009,12,08,04,28,-8.00
2009,12,08,04,29,-8.10
2009,12,08,04,30,-8.10
2009,12,08,04,31,-8.10
2009,12,08,04,32,-8.10
2009,12,08,04,33,-8.30
2009,12,08,04,34,-8.40
2009,12,08,04,35,-8.40
2009,12,08,04,36,-8.50
2009,12,08,04,37,-8.50
2009,12,08,04,38,-8.40
2009,12,08,04,39,-8.40
2009,12,08,04,40,-8.30
2009,12,08,04,41,-8.20
2009,12,08,04,42,-8.20
2009,12,08,04,43,-8.10
2009,12,08,04,44,-8.10
2009,12,08,04,45,-8.10
2009,12,08,04,46,-8.10
2009,12,08,04,47,-8.10
2009,12,08,04,48,-8.20
2009,12,08,04,49,-8.20
2009,12,08,04,50,-8.20
2009,12,08,04,51,-8.30
2009,12,08,04,52,-8.30
2009,12,08,04,53,-8.30
2009,12,08,04,54,-8.40
2009,12,08,04,55,-8.40
2009,12,08,04,56,-8.40
2009,12,08,04,57,-8.30
2009,12,08,04,58,-8.30
2009,12,08,04,59,-8.30
2009,12,08,05,00,-8.30
2009,12,08,05,01,-8.30
2009,12,08,05,02,-8.30
2009,12,08,05,03,-8.30
2009,12,08,05,04,-8.30
2009,12,08,05,05,-8.30
2009,12,08,05,06,-8.40
2009,12,08,05,07,-8.40
2009,12,08,05,08,-8.40
2009,12,08,05,09,-8.40
2009,12,08,05,10,-8.50
2009,12,08,05,11,-8.50
2009,12,08,05,12,-8.60
2009,12,08,05,13,-8.60
2009,12,08,05,14,-8.60
2009,12,08,05,15,-8.70
2009,12,08,05,16,-8.70
2009,12,08,05,17,-8.70
2009,12,08,05,18,-8.80
2009,12,08,05,19,-8.80
2009,12,08,05,20,-8.90
2009,12,08,05,21,-8.90
2009,12,08,05,22,-8.90
2009,12,08,05,23,-9.00
2009,12,08,05,24,-8.90
2009,12,08,05,25,-8.80
2009,12,08,05,26,-8.70
2009,12,08,05,27,-8.50
2009,12,08,05,28,-8.40
2009,12,08,05,29,-8.30
2009,12,08,05,30,-8.20
2009,12,08,05,31,-8.10
2009,12,08,05,32,-8.10
2009,12,08,05,33,-8.10
2009,12,08,05,34,-8.10
2009,12,08,05,35,-8.10
2009,12,08,05,36,-8.10
2009,12,08,05,37,-8.20
2009,12,08,05,38,-8.20
2009,12,08,05,39,-8.20
2009,12,08,05,40,-8.20
2009,12,08,05,41,-8.20
2009,12,08,05,42,-8.30
2009,12,08,05,43,-8.30
2009,12,08,05,44,-8.30
2009,12,08,05,45,-8.40
2009,12,08,05,46,-8.40
2009,12,08,05,47,-8.40
2009,12,08,05,48,-8.50
2009,12,08,05,49,-8.50
2009,12,08,05,50,-8.40
2009,12,08,05,51,-8.40
2009,12,08,05,52,-8.40
2009,12,08,05,53,-8.30
2009,12,08,05,54,-8.20
2009,12,08,05,55,-8.10
2009,12,08,05,56,-8.10
2009,12,08,05,57,-8.00
2009,12,08,05,58,-7.90
2009,12,08,05,59,-7.90
2009,12,08,06,00,-7.80
2009,12,08,06,01,-7.80
2009,12,08,06,02,-7.70
2009,12,08,06,03,-7.70
2009,12,08,06,04,-7.70
2009,12,08,06,05,-7.80
2009,12,08,06,06,-7.80
2009,12,08,06,07,-7.90
2009,12,08,06,08,-7.90
2009,12,08,06,09,-8.00
2009,12,08,06,10,-8.10
2009,12,08,06,11,-8.10
2009,12,08,06,12,-8.10
2009,12,08,06,13,-8.10
2009,12,08,06,14,-8.10
2009,12,08,06,15,-8.00
2009,12,08,06,16,-8.00
2009,12,08,06,17,-7.90
2009,12,08,06,18,-7.90
2009,12,08,06,19,-7.80
2009,12,08,06,20,-7.80
2009,12,08,06,21,-7.80
2009,12,08,06,22,-7.70
2009,12,08,06,23,-7.70
2009,12,08,06,24,-7.70
2009,12,08,06,25,-7.70
2009,12,08,06,26,-7.70
2009,12,08,06,27,-7.70
2009,12,08,06,28,-7.70
2009,12,08,06,29,-7.80
2009,12,08,06,30,-7.80
2009,12,08,06,31,-7.80
2009,12,08,06,32,-7.80
2009,12,08,06,33,-7.80
2009,12,08,06,34,-7.80
2009,12,08,06,35,-7.80
2009,12,08,06,36,-7.80
2009,12,08,06,37,-7.80
2009,12,08,06,38,-7.80
2009,12,08,06,39,-7.80
2009,12,08,06,40,-7.80
2009,12,08,06,41,-7.80
2009,12,08,06,42,-7.80
2009,12,08,06,43,-7.80
2009,12,08,06,44,-7.90
2009,12,08,06,45,-7.90
2009,12,08,06,46,-7.90
2009,12,08,06,47,-8.00
2009,12,08,06,48,-8.00
2009,12,08,06,49,-8.10
2009,12,08,06,50,-8.10
2009,12,08,06,51,-8.20
2009,12,08,06,52,-8.20
2009,12,08,06,53,-8.30
2009,12,08,06,54,-8.30
2009,12,08,06,55,-8.40
2009,12,08,06,56,-8.40
2009,12,08,06,57,-8.50
2009,12,08,06,58,-8.50
2009,12,08,06,59,-8.50
2009,12,08,07,00,-8.60
2009,12,08,07,01,-8.60
2009,12,08,07,02,-8.60
2009,12,08,07,03,-8.60
2009,12,08,07,04,-8.60
2009,12,08,07,05,-8.60
2009,12,08,07,06,-8.50
2009,12,08,07,07,-8.60
2009,12,08,07,08,-8.60
2009,12,08,07,09,-8.60
2009,12,08,07,10,-8.60
2009,12,08,07,11,-8.60
2009,12,08,07,12,-8.60
2009,12,08,07,13,-8.60
2009,12,08,07,14,-8.60
2009,12,08,07,15,-8.60
2009,12,08,07,16,-8.60
2009,12,08,07,17,-8.70
2009,12,08,07,18,-8.70
2009,12,08,07,19,-8.80
2009,12,08,07,20,-8.80
2009,12,08,07,21,-8.80
2009,12,08,07,22,-8.80
2009,12,08,07,23,-8.80
2009,12,08,07,24,-8.80
2009,12,08,07,25,-8.80
2009,12,08,07,26,-8.80
2009,12,08,07,27,-8.80
2009,12,08,07,28,-8.80
2009,12,08,07,29,-8.80
2009,12,08,07,30,-8.90
2009,12,08,07,31,-8.90
2009,12,08,07,32,-8.90
2009,12,08,07,33,-8.90
2009,12,08,07,34,-8.90
2009,12,08,07,35,-8.90
2009,12,08,07,36,-8.90
2009,12,08,07,37,-8.90
2009,12,08,07,38,-8.90
2009,12,08,07,39,-8.90
2009,12,08,07,40,-9.00
2009,12,08,07,41,-9.00
2009,12,08,07,42,-9.00
2009,12,08,07,43,-9.10
2009,12,08,07,44,-9.10
2009,12,08,07,45,-9.10
2009,12,08,07,46,-9.10
2009,12,08,07,47,-9.10
2009,12,08,07,48,-9.10
2009,12,08,07,49,-9.00
2009,12,08,07,50,-9.00
2009,12,08,07,51,-8.90
2009,12,08,07,52,-8.80
2009,12,08,07,53,-8.70
2009,12,08,07,54,-8.60
2009,12,08,07,55,-8.50
2009,12,08,07,56,-8.50
2009,12,08,07,57,-8.40
2009,12,08,07,58,-8.30
2009,12,08,07,59,-8.30
2009,12,08,08,00,-8.30
2009,12,08,08,01,-8.20
2009,12,08,08,02,-8.20
2009,12,08,08,03,-8.20
2009,12,08,08,04,-8.20
2009,12,08,08,05,-8.10
2009,12,08,08,06,-8.10
2009,12,08,08,07,-8.10
2009,12,08,08,08,-8.10
2009,12,08,08,09,-8.10
2009,12,08,08,10,-8.10
2009,12,08,08,11,-8.10
2009,12,08,08,12,-8.10
2009,12,08,08,13,-8.10
2009,12,08,08,14,-8.10
2009,12,08,08,15,-8.10
2009,12,08,08,16,-8.10
2009,12,08,08,17,-8.10
2009,12,08,08,18,-8.10
2009,12,08,08,19,-8.00
2009,12,08,08,20,-8.00
2009,12,08,08,21,-8.00
2009,12,08,08,22,-8.00
2009,12,08,08,23,-8.00
2009,12,08,08,24,-8.00
2009,12,08,08,25,-8.10
2009,12,08,08,26,-8.10
2009,12,08,08,27,-8.10
2009,12,08,08,28,-8.10
2009,12,08,08,29,-8.10
2009,12,08,08,30,-8.20
2009,12,08,08,31,-8.20
2009,12,08,08,32,-8.20
2009,12,08,08,33,-8.20
2009,12,08,08,34,-8.20
2009,12,08,08,35,-8.20
2009,12,08,08,36,-8.10
2009,12,08,08,37,-8.10
2009,12,08,08,38,-8.10
2009,12,08,08,39,-8.00
2009,12,08,08,40,-8.00
2009,12,08,08,41,-7.90
2009,12,08,08,42,-7.90
2009,12,08,08,43,-7.90
2009,12,08,08,44,-7.90
2009,12,08,08,45,-7.90
2009,12,08,08,46,-7.80
2009,12,08,08,47,-7.80
2009,12,08,08,48,-7.80
2009,12,08,08,49,-7.80
2009,12,08,08,50,-7.80
2009,12,08,08,51,-7.80
2009,12,08,08,52,-7.80
2009,12,08,08,53,-7.80
2009,12,08,08,54,-7.80
2009,12,08,08,55,-7.70
2009,12,08,08,56,-7.70
2009,12,08,08,57,-7.70
2009,12,08,08,58,-7.70
2009,12,08,08,59,-7.70
2009,12,08,09,00,-7.60
2009,12,08,09,01,-7.60
2009,12,08,09,02,-7.60
2009,12,08,09,03,-7.50
2009,12,08,09,04,-7.40
2009,12,08,09,05,-7.40
2009,12,08,09,06,-7.30
2009,12,08,09,07,-7.30
2009,12,08,09,08,-7.30
2009,12,08,09,09,-7.30
2009,12,08,09,10,-7.20
2009,12,08,09,11,-7.20
2009,12,08,09,12,-7.10
2009,12,08,09,13,-7.10
2009,12,08,09,14,-7.00
2009,12,08,09,15,-6.90
2009,12,08,09,16,-6.80
2009,12,08,09,17,-6.80
2009,12,08,09,18,-6.80
2009,12,08,09,19,-6.80
2009,12,08,09,20,-6.70
2009,12,08,09,21,-6.60
2009,12,08,09,22,-6.50
2009,12,08,09,23,-6.40
2009,12,08,09,24,-6.30
2009,12,08,09,25,-6.20
2009,12,08,09,26,-6.10
2009,12,08,09,27,-6.00
2009,12,08,09,28,-5.80
2009,12,08,09,29,-5.80
2009,12,08,09,30,-5.70
2009,12,08,09,31,-5.60
2009,12,08,09,32,-5.60
2009,12,08,09,33,-5.60
2009,12,08,09,34,-5.50
2009,12,08,09,35,-5.50
2009,12,08,09,36,-5.50
2009,12,08,09,37,-5.50
2009,12,08,09,38,-5.50
2009,12,08,09,39,-5.40
2009,12,08,09,40,-5.40
2009,12,08,09,41,-5.40
2009,12,08,09,42,-5.40
2009,12,08,09,43,-5.30
2009,12,08,09,44,-5.30
2009,12,08,09,45,-5.20
2009,12,08,09,46,-5.10
2009,12,08,09,47,-5.00
2009,12,08,09,48,-5.00
2009,12,08,09,49,-4.90
2009,12,08,09,50,-4.80
2009,12,08,09,51,-4.70
2009,12,08,09,52,-4.60
2009,12,08,09,53,-4.50
2009,12,08,09,54,-4.40
2009,12,08,09,55,-4.30
2009,12,08,09,56,-4.20
2009,12,08,09,57,-4.20
2009,12,08,09,58,-4.10
2009,12,08,09,59,-4.00
2009,12,08,10,00,-4.00
2009,12,08,10,01,-3.90
2009,12,08,10,02,-3.90
2009,12,08,10,03,-3.80
2009,12,08,10,04,-3.70
2009,12,08,10,05,-3.70
2009,12,08,10,06,-3.60
2009,12,08,10,07,-3.60
2009,12,08,10,08,-3.50
2009,12,08,10,09,-3.40
2009,12,08,10,10,-3.30
2009,12,08,10,11,-3.20
2009,12,08,10,12,-3.20
2009,12,08,10,13,-3.10
2009,12,08,10,14,-3.10
2009,12,08,10,15,-3.00
2009,12,08,10,16,-3.00
2009,12,08,10,17,-2.90
2009,12,08,10,18,-2.90
2009,12,08,10,19,-2.80
2009,12,08,10,20,-2.80
2009,12,08,10,21,-2.70
2009,12,08,10,22,-2.70
2009,12,08,10,23,-2.60
2009,12,08,10,24,-2.60
2009,12,08,10,25,-2.50
2009,12,08,10,26,-2.40
2009,12,08,10,27,-2.20
2009,12,08,10,28,-2.00
2009,12,08,10,29,-1.90
2009,12,08,10,30,-1.80
2009,12,08,10,31,-1.70
2009,12,08,10,32,-1.60
2009,12,08,10,33,-1.50
2009,12,08,10,34,-1.40
2009,12,08,10,35,-1.30
2009,12,08,10,36,-1.20
2009,12,08,10,37,-1.20
2009,12,08,10,38,-1.10
2009,12,08,10,39,-1.00
2009,12,08,10,40,-1.00
2009,12,08,10,41,-0.90
2009,12,08,10,42,-0.80
2009,12,08,10,43,-0.80
2009,12,08,10,44,-0.80
2009,12,08,10,45,-0.70
2009,12,08,10,46,-0.70
2009,12,08,10,47,-0.70
2009,12,08,10,48,-0.70
2009,12,08,10,49,-0.70
2009,12,08,10,50,-0.70
2009,12,08,10,51,-0.60
2009,12,08,10,52,-0.60
2009,12,08,10,53,-0.60
2009,12,08,10,54,-0.60
2009,12,08,10,55,-0.50
2009,12,08,10,56,-0.50
2009,12,08,10,57,-0.60
2009,12,08,10,58,-0.60
2009,12,08,10,59,-0.60
2009,12,08,11,00,-0.60
2009,12,08,11,01,-0.60
2009,12,08,11,02,-0.60
2009,12,08,11,03,-0.60
2009,12,08,11,04,-0.60
2009,12,08,11,05,-0.60
2009,12,08,11,06,-0.60
2009,12,08,11,07,-0.50
2009,12,08,11,08,-0.50
2009,12,08,11,09,-0.50
2009,12,08,11,10,-0.40
2009,12,08,11,11,-0.40
2009,12,08,11,12,-0.40
2009,12,08,11,13,-0.40
2009,12,08,11,14,-0.40
2009,12,08,11,15,-0.40
2009,12,08,11,16,-0.40
2009,12,08,11,17,-0.30
2009,12,08,11,18,-0.30
2009,12,08,11,19,-0.30
2009,12,08,11,20,-0.30
2009,12,08,11,21,-0.30
2009,12,08,11,22,-0.30
2009,12,08,11,23,-0.30
2009,12,08,11,24,-0.30
2009,12,08,11,25,-0.30
2009,12,08,11,26,-0.30
2009,12,08,11,27,-0.30
2009,12,08,11,28,-0.30
2009,12,08,11,29,-0.30
2009,12,08,11,30,-0.30
2009,12,08,11,31,-0.30
2009,12,08,11,32,-0.30
2009,12,08,11,33,-0.20
2009,12,08,11,34,-0.20
2009,12,08,11,35,-0.20
2009,12,08,11,36,-0.20
2009,12,08,11,37,-0.20
2009,12,08,11,38,-0.10
2009,12,08,11,39,-0.10
2009,12,08,11,40,0.00
2009,12,08,11,41,0.00
2009,12,08,11,42,0.00
2009,12,08,11,43,0.10
2009,12,08,11,44,0.10
2009,12,08,11,45,0.20
2009,12,08,11,46,0.20
2009,12,08,11,47,0.30
2009,12,08,11,48,0.30
2009,12,08,11,49,0.30
2009,12,08,11,50,0.30
2009,12,08,11,51,0.30
2009,12,08,11,52,0.30
2009,12,08,11,53,0.30
2009,12,08,11,54,0.30
2009,12,08,11,55,0.30
2009,12,08,11,56,0.30
2009,12,08,11,57,0.30
2009,12,08,11,58,0.30
2009,12,08,11,59,0.30
2009,12,08,12,00,0.20
2009,12,08,12,01,0.20
2009,12,08,12,02,0.30
2009,12,08,12,03,0.30
2009,12,08,12,04,0.30
2009,12,08,12,05,0.30
2009,12,08,12,06,0.30
2009,12,08,12,07,0.30
2009,12,08,12,08,0.30
2009,12,08,12,09,0.30
2009,12,08,12,10,0.40
2009,12,08,12,11,0.40
2009,12,08,12,12,0.50
2009,12,08,12,13,0.50
2009,12,08,12,14,0.60
2009,12,08,12,15,0.70
2009,12,08,12,16,0.70
2009,12,08,12,17,0.70
2009,12,08,12,18,0.80
2009,12,08,12,19,0.80
2009,12,08,12,20,0.90
2009,12,08,12,21,0.90
2009,12,08,12,22,0.90
2009,12,08,12,23,0.90
2009,12,08,12,24,0.90
2009,12,08,12,25,0.90
2009,12,08,12,26,0.90
2009,12,08,12,27,0.90
2009,12,08,12,28,0.90
2009,12,08,12,29,0.80
2009,12,08,12,30,0.80
2009,12,08,12,31,0.90
2009,12,08,12,32,0.90
2009,12,08,12,33,0.90
2009,12,08,12,34,1.00
2009,12,08,12,35,1.00
2009,12,08,12,36,1.00
2009,12,08,12,37,1.00
2009,12,08,12,38,1.00
2009,12,08,12,39,0.90
2009,12,08,12,40,0.90
2009,12,08,12,41,0.90
2009,12,08,12,42,0.90
2009,12,08,12,43,0.90
2009,12,08,12,44,0.90
2009,12,08,12,45,1.00
2009,12,08,12,46,0.90
2009,12,08,12,47,0.80
2009,12,08,12,48,0.80
2009,12,08,12,49,0.80
2009,12,08,12,50,0.80
2009,12,08,12,51,0.80
2009,12,08,12,52,0.70
2009,12,08,12,53,0.70
2009,12,08,12,54,0.70
2009,12,08,12,55,0.70
2009,12,08,12,56,0.70
2009,12,08,12,57,0.70
2009,12,08,12,58,0.80
2009,12,08,12,59,0.80
2009,12,08,13,00,0.80
2009,12,08,13,01,0.90
2009,12,08,13,02,0.90
2009,12,08,13,03,0.90
2009,12,08,13,04,0.90
2009,12,08,13,05,1.00
2009,12,08,13,06,1.10
2009,12,08,13,07,1.10
2009,12,08,13,08,1.10
2009,12,08,13,09,1.10
2009,12,08,13,10,1.10
2009,12,08,13,11,1.10
2009,12,08,13,12,1.00
2009,12,08,13,13,1.00
2009,12,08,13,14,1.00
2009,12,08,13,15,1.00
2009,12,08,13,16,1.00
2009,12,08,13,17,0.90
2009,12,08,13,18,0.90
2009,12,08,13,19,1.00
2009,12,08,13,20,1.00
2009,12,08,13,21,1.00
2009,12,08,13,22,1.10
2009,12,08,13,23,1.10
2009,12,08,13,24,1.10
2009,12,08,13,25,1.20
2009,12,08,13,26,1.30
2009,12,08,13,27,1.30
2009,12,08,13,28,1.30
2009,12,08,13,29,1.30
2009,12,08,13,30,1.30
2009,12,08,13,31,1.30
2009,12,08,13,32,1.30
2009,12,08,13,33,1.20
2009,12,08,13,34,1.20
2009,12,08,13,35,1.20
2009,12,08,13,36,1.10
2009,12,08,13,37,1.00
2009,12,08,13,38,1.00
2009,12,08,13,39,1.00
2009,12,08,13,40,0.90
2009,12,08,13,41,0.90
2009,12,08,13,42,0.90
2009,12,08,13,43,0.90
2009,12,08,13,44,0.90
2009,12,08,13,45,1.00
2009,12,08,13,46,1.00
2009,12,08,13,47,1.00
2009,12,08,13,48,1.10
2009,12,08,13,49,1.20
2009,12,08,13,50,1.20
2009,12,08,13,51,1.20
2009,12,08,13,52,1.20
2009,12,08,13,53,1.20
2009,12,08,13,54,1.30
2009,12,08,13,55,1.30
2009,12,08,13,56,1.30
2009,12,08,13,57,1.30
2009,12,08,13,58,1.30
2009,12,08,13,59,1.30
2009,12,08,14,00,1.30
2009,12,08,14,01,1.30
2009,12,08,14,02,1.30
2009,12,08,14,03,1.30
2009,12,08,14,04,1.30
2009,12,08,14,05,1.30
2009,12,08,14,06,1.20
2009,12,08,14,07,1.20
2009,12,08,14,08,1.20
2009,12,08,14,09,1.20
2009,12,08,14,10,1.20
2009,12,08,14,11,1.20
2009,12,08,14,12,1.30
2009,12,08,14,13,1.30
2009,12,08,14,14,1.30
2009,12,08,14,15,1.30
2009,12,08,14,16,1.30
2009,12,08,14,17,1.30
2009,12,08,14,18,1.30
2009,12,08,14,19,1.40
2009,12,08,14,20,1.40
2009,12,08,14,21,1.50
2009,12,08,14,22,1.50
2009,12,08,14,23,1.50
2009,12,08,14,24,1.50
2009,12,08,14,25,1.40
2009,12,08,14,26,1.30
2009,12,08,14,27,1.30
2009,12,08,14,28,1.30
2009,12,08,14,29,1.30
2009,12,08,14,30,1.30
2009,12,08,14,31,1.30
2009,12,08,14,32,1.30
2009,12,08,14,33,1.30
2009,12,08,14,34,1.40
2009,12,08,14,35,1.50
2009,12,08,14,36,1.50
2009,12,08,14,37,1.60
2009,12,08,14,38,1.60
2009,12,08,14,39,1.60
2009,12,08,14,40,1.60
2009,12,08,14,41,1.60
2009,12,08,14,42,1.60
2009,12,08,14,43,1.50
2009,12,08,14,44,1.50
2009,12,08,14,45,1.50
2009,12,08,14,46,1.50
2009,12,08,14,47,1.50
2009,12,08,14,48,1.40
2009,12,08,14,49,1.40
2009,12,08,14,50,1.40
2009,12,08,14,51,1.40
2009,12,08,14,52,1.30
2009,12,08,14,53,1.30
2009,12,08,14,54,1.20
2009,12,08,14,55,1.10
2009,12,08,14,56,1.10
2009,12,08,14,57,1.00
2009,12,08,14,58,1.00
2009,12,08,14,59,1.00
2009,12,08,15,00,1.00
2009,12,08,15,01,1.10
2009,12,08,15,02,1.10
2009,12,08,15,03,1.10
2009,12,08,15,04,1.10
2009,12,08,15,05,1.00
2009,12,08,15,06,1.00
2009,12,08,15,07,0.90
2009,12,08,15,08,0.90
2009,12,08,15,09,0.90
2009,12,08,15,10,0.90
2009,12,08,15,11,0.90
2009,12,08,15,12,0.90
2009,12,08,15,13,0.90
2009,12,08,15,14,0.80
2009,12,08,15,15,0.80
2009,12,08,15,16,0.80
2009,12,08,15,17,0.80
2009,12,08,15,18,0.80
2009,12,08,15,19,0.70
2009,12,08,15,20,0.70
2009,12,08,15,21,0.70
2009,12,08,15,22,0.70
2009,12,08,15,23,0.70
2009,12,08,15,24,0.70
2009,12,08,15,25,0.70
2009,12,08,15,26,0.60
2009,12,08,15,27,0.60
2009,12,08,15,28,0.60
2009,12,08,15,29,0.60
2009,12,08,15,30,0.60
2009,12,08,15,31,0.50
2009,12,08,15,32,0.50
2009,12,08,15,33,0.50
2009,12,08,15,34,0.50
2009,12,08,15,35,0.50
2009,12,08,15,36,0.40
2009,12,08,15,37,0.40
2009,12,08,15,38,0.50
2009,12,08,15,39,0.50
2009,12,08,15,40,0.50
2009,12,08,15,41,0.50
2009,12,08,15,42,0.50
2009,12,08,15,43,0.50
2009,12,08,15,44,0.40
2009,12,08,15,45,0.40
2009,12,08,15,46,0.30
2009,12,08,15,47,0.30
2009,12,08,15,48,0.20
2009,12,08,15,49,0.10
2009,12,08,15,50,0.00
2009,12,08,15,51,0.00
2009,12,08,15,52,-0.10
2009,12,08,15,53,-0.20
2009,12,08,15,54,-0.20
2009,12,08,15,55,-0.30
2009,12,08,15,56,-0.30
2009,12,08,15,57,-0.40
2009,12,08,15,58,-0.40
2009,12,08,15,59,-0.50
2009,12,08,16,00,-0.60
2009,12,08,16,01,-0.60
2009,12,08,16,02,-0.70
2009,12,08,16,03,-0.80
2009,12,08,16,04,-0.80
2009,12,08,16,05,-0.90
2009,12,08,16,06,-1.00
2009,12,08,16,07,-1.00
2009,12,08,16,08,-1.10
2009,12,08,16,09,-1.10
2009,12,08,16,10,-1.20
2009,12,08,16,11,-1.20
2009,12,08,16,12,-1.20
2009,12,08,16,13,-1.30
2009,12,08,16,14,-1.30
2009,12,08,16,15,-1.30
2009,12,08,16,16,-1.40
2009,12,08,16,17,-1.40
2009,12,08,16,18,-1.50
2009,12,08,16,19,-1.50
2009,12,08,16,20,-1.60
2009,12,08,16,21,-1.60
2009,12,08,16,22,-1.70
2009,12,08,16,23,-1.70
2009,12,08,16,24,-1.80
2009,12,08,16,25,-1.80
2009,12,08,16,26,-1.80
2009,12,08,16,27,-1.90
2009,12,08,16,28,-1.90
2009,12,08,16,29,-2.00
2009,12,08,16,30,-2.00
2009,12,08,16,31,-2.10
2009,12,08,16,32,-2.10
2009,12,08,16,33,-2.20
2009,12,08,16,34,-2.20
2009,12,08,16,35,-2.20
2009,12,08,16,36,-2.30
2009,12,08,16,37,-2.30
2009,12,08,16,38,-2.40
2009,12,08,16,39,-2.40
2009,12,08,16,40,-2.40
2009,12,08,16,41,-2.50
2009,12,08,16,42,-2.50
2009,12,08,16,43,-2.50
2009,12,08,16,44,-2.60
2009,12,08,16,45,-2.60
2009,12,08,16,46,-2.60
2009,12,08,16,47,-2.60
2009,12,08,16,48,-2.70
2009,12,08,16,49,-2.70
2009,12,08,16,50,-2.70
2009,12,08,16,51,-2.70
2009,12,08,16,52,-2.80
2009,12,08,16,53,-2.80
2009,12,08,16,54,-2.80
2009,12,08,16,55,-2.80
2009,12,08,16,56,-2.80
2009,12,08,16,57,-2.90
2009,12,08,16,58,-2.90
2009,12,08,16,59,-2.90
2009,12,08,17,00,-2.90
2009,12,08,17,01,-2.90
2009,12,08,17,02,-2.90
2009,12,08,17,03,-3.00
2009,12,08,17,04,-3.00
2009,12,08,17,05,-3.00
2009,12,08,17,06,-3.00
2009,12,08,17,07,-3.10
2009,12,08,17,08,-3.10
2009,12,08,17,09,-3.10
2009,12,08,17,10,-3.20
2009,12,08,17,11,-3.20
2009,12,08,17,12,-3.20
2009,12,08,17,13,-3.20
2009,12,08,17,14,-3.20
2009,12,08,17,15,-3.20
2009,12,08,17,16,-3.20
2009,12,08,17,17,-3.30
2009,12,08,17,18,-3.30
2009,12,08,17,19,-3.30
2009,12,08,17,20,-3.30
2009,12,08,17,21,-3.30
2009,12,08,17,22,-3.30
2009,12,08,17,23,-3.40
2009,12,08,17,24,-3.40
2009,12,08,17,25,-3.40
2009,12,08,17,26,-3.40
2009,12,08,17,27,-3.40
2009,12,08,17,28,-3.40
2009,12,08,17,29,-3.40
2009,12,08,17,30,-3.40